Regional Weather Roundup
Issued by NWS Columbia, SC

Home | Current Version | Previous Version | Text Only | Print | Product List | Glossary On
Versions: 1 2 3 4 5 6 7 8 9 10 11 12 13 14 15 16 17 18 19 20 21 22 23 24 25 26 27 28 29 30 31 32 33 34 35 36 37 38 39 40 41 42 43 44 45 46 47 48 49 50
000
ASUS42 KCAE 272110
RWRCAE
REGIONAL WEATHER ROUNDUP
NATIONAL WEATHER SERVICE COLUMBIA SC
500 PM EDT FRI MAY 27 2016

NOTE: "FAIR" INDICATES FEW OR NO CLOUDS BELOW 12,000 FEET WITH NO
SIGNIFICANT WEATHER AND/OR OBSTRUCTIONS TO VISIBILITY.

NOT ALL STATIONS ARE QUALITY CONTROLLED BY THE NATIONAL
WEATHER SERVICE. USE DATA WITH CAUTION...ESPECIALLY
DEWPOINT OBSERVATIONS.

SCZ001>056-GAZ040-063>065-077-272200-
...UPSTATE SOUTH CAROLINA...

CITY           SKY/WX    TMP DP  RH WIND       PRES   REMARKS
ANDERSON       MOSUNNY   84  60  44 E6        30.07F
LIBERTY        PTCLDY    82  60  48 CALM      30.08F
SPARTANBURG    SUNNY     82  59  44 SE5       30.08F
CLEMSON        SUNNY     84  59  42 SE5       30.09F
GREENVILLE     MOSUNNY   84  60  44 S10       30.09F
GREENWOOD      MOSUNNY   84  60  44 CALM      30.09F
GREER          PTSUNNY   83  62  49 SE9       30.08F
ROCK HILL      MOSUNNY   84  63  49 S12G21    30.10F
CHESTER        PTCLDY    82  57  42 S5        30.10S
LAURENS        MOCLDY    82  63  51 S6        30.08F


...CENTRAL SOUTH CAROLINA...

CITY           SKY/WX    TMP DP  RH WIND       PRES   REMARKS
COLUMBIA APT   MOSUNNY   88  62  41 SE9       30.06F
COLUMBIA OWENS MOSUNNY   88  59  37 S9        30.07F
MCENTIRE ANGB  MOSUNNY   85  60  41 E8        30.07F
ORANGEBURG     MOSUNNY   87  55  33 E9        30.07F
SUMTER SHAW    MOSUNNY   87  58  37 SE12      30.05F
AIKEN          FAIR      84  59  42 E9        30.10S
BARNWELL       FAIR      88  61  40 E3        30.07S
MANNING        FAIR      86  55  35 SE8       30.08S
LANCASTER      PTCLDY    84  63  48 SE6       30.09F
WINNSBORO      CLEAR     86  61  42 E6        30.08F


...EASTERN AND COASTAL SOUTH CAROLINA...

CITY           SKY/WX    TMP DP  RH WIND       PRES   REMARKS
MYRTLE BEACH   SUNNY     81  59  47 SE12      30.14S
N MYRTLE BCH   SUNNY     79  62  56 SE10      30.12S
CONWAY         FAIR      81  52  36 SE8       30.12R
MARION         FAIR      82  61  47 SE8       30.09S
HARTSVILLE     FAIR      86  59  39 E5        30.07F
FLORENCE       MOSUNNY   86  60  41 SE8       30.08F
DARLINGTON     SUNNY     86  62  44 SE8       30.08F
CHARLESTON APT MOSUNNY   84  60  44 SE15G21   30.08F
MOUNT PLEASANT FAIR      82  63  51 E7        30.10S
WALTERBORO     PTCLDY    88  54  31 E13       30.08S
BEAUFORT       MOSUNNY   82  62  50 E12       30.08S


...EASTERN GEORGIA...

CITY           SKY/WX    TMP DP  RH WIND       PRES   REMARKS
AUGUSTA BUSH F MOSUNNY   87  62  43 SE9       30.04F
AUGUSTA DANIEL MOSUNNY   86  61  42 SE6       30.06F
THOMSON        PTSUNNY   86  65  49 E6        30.10F
WASHINGTON     FAIR      86  64  48 E8        30.06F
CLAXTON        FAIR      85  61  43 NE10G17   30.05S
SYLVANIA       CLEAR     87  57  35 SE9       30.07F
STATESBORO     SUNNY     87  60  40 SE8       30.06F
SAVANNAH       MOSUNNY   83  62  49 E10       30.08S


...SOUTHERN NORTH CAROLINA...

CITY           SKY/WX    TMP DP  RH WIND       PRES   REMARKS
CHARLOTTE      MOSUNNY   82  61  48 S10       30.09F
WADESBORO      PTCLDY    87  55  34 S6        30.08F
ROCKINGHAM     PTCLDY    85  61  43 SE6       30.08F
RUTHERFORDTON  MOSUNNY   83  62  49 S10       30.10S
ASHEVILLE      MOSUNNY   78  59  51 SE10      30.13F

$$



USA.gov is the U.S. government's official web portal to all federal, state and local government web resources and services.